Location: Cheching
(60.0667°N, 164.2167°W)
Time: 03:26:42
(UTC+00:00)

AIST 2D - Pass Details

Date: 26 January 2021
Orbit: 450 x 467 km, 97.1° (Epoch: 03 March)

Event Time Altitude Azimuth Distance (km) Brightness Sun altitude
Rises 18:06:59 0° 103° (ESE) 2,501 ? -9.1°
Reaches altitude 10° 18:10:09 10° 71° (ENE) 1,626 ? -8.7°
Maximum altitude 18:11:27 12° 49° (NE) 1,516 ? -8.6°
Drops below altitude 10° 18:12:46 10° 27° (NNE) 1,626 ? -8.4°
Sets 18:15:56 0° 354° (N) 2,502 ? -8.0°
